Torna al catalogo

CZ-6A DEB

AttivoSSO
NORAD 54956·DEBRIS·🇨🇳 China

Lanciato Nov 11, 2022 da Taiyuan Satellite Launch Center

Loading…

Prossimi Passaggi (prossime 24 ore)

TLE

AggiornatoSource: Space-Track

Epoca: Sep 14, 2026, 09:18 UTC

1 54956U 22151SV  26257.38796043  .00000595  00000-0  39530-3 0  9994
2 54956  98.9114 233.9520 0133921 115.7484 245.7574 14.00772835195732

Traccia CZ-6A DEB in tempo reale con AllMySat

Download on the App Store